Regional Weather Roundup
Issued by NWS

Home | Current Version | Previous Version | Text Only | Print | Product List | Glossary Off
Versions: 1 2 3 4 5 6 7 8 9 10 11 12 13 14 15 16 17 18 19 20 21 22 23 24 25 26 27 28 29 30 31 32 33 34 35 36 37 38 39 40 41 42 43 44 45 46 47 48 49 50

000
ASUS43 KIND 070959
RWRIN

WEATHER ROUNDUP FOR INDIANA
NATIONAL WEATHER SERVICE INDIANAPOLIS IN
600 AM EDT THU MAY 07 2015

NOTE: "FAIR" INDICATES FEW OR NO CLOUDS BELOW 12,000 FEET WITH NO
SIGNIFICANT WEATHER AND/OR OBSTRUCTIONS TO VISIBILITY.

* - STATION DOES NOT REPORT WEATHER SUCH AS PRECIPITATION OR FOG.

+ - STATION NOT QUALITY CONTROLLED BY THE NATIONAL WEATHER SERVICE.
    USE DATA WITH CAUTION...ESPECIALLY DEWPOINT AND RELATIVE
    HUMIDITY OBSERVATIONS.

INZ001>003-010>013-019-020-071100-
NORTHWEST INDIANA

CITY           SKY/WX    TMP DP  RH WIND       PRES   REMARKS
GARY /AIRPORT/ CLEAR     64 N/A N/A SE8       30.06F

$$

LMZ046-743>745-071100-
SOUTHERN LAKE MICHIGAN

STATION/POSITION TIME  TEMP    WIND        PRES    WAVE
                       AIR SEA DIR/SP/G            HT
                 (UTC) (F)     (DEG/KT/KT) (MB)    (FT)
BURNS HARBOR     0900   68     140/ 11/ 17 1018.6S
MICHIGAN CITY    0900   67     120/ 11/ 13   N/A
5NW MICH CITY    0900   61 53  160/ 10/ 10   N/A     1

$$

INZ004-005-014>016-021>024-071100-
NORTH CENTRAL INDIANA

CITY           SKY/WX    TMP DP  RH WIND       PRES   REMARKS
GOSHEN         CLEAR     59  55  87 SE5       30.11S FOG
SOUTH BEND     PTCLDY    61  58  90 SE7       30.11S FOG

$$

INZ006>009-017-018-025>027-071100-
NORTHEAST INDIANA

CITY           SKY/WX    TMP DP  RH WIND       PRES   REMARKS
ANGOLA *+      PTCLDY    55  54  94 SE3       30.13S
FORT WAYNE     CLEAR     55  53  93 E5        30.13S

$$

INZ028-029-035-036-043>045-051>053-071100-
WEST CENTRAL INDIANA

CITY           SKY/WX    TMP DP  RH WIND       PRES   REMARKS
GREENCASTLE +  CLEAR     55  50  82 CALM      30.09F
LAFAYETTE      CLEAR     58  54  86 E3        30.07F
TERRE HAUTE    CLEAR     59  55  87 CALM      30.07F

$$

INZ030>032-037>040-046>048-054>057-064-065-071100-
CENTRAL INDIANA

CITY           SKY/WX    TMP DP  RH WIND       PRES   REMARKS
GREENWOOD *+   PTCLDY    61  52  72 E3        30.10
INDIANAPOLIS   PTCLDY    64  52  64 E3        30.08S
-EAGLE CREEK   CLEAR     59  53  80 CALM      30.09S
KOKOMO *+      CLEAR     59  55  88 SE3       30.10S
MT COMFORT *+  CLEAR     63  48  59 SE5       30.11S
SHELBYVILLE    CLEAR     62  53  72 E3        30.10R

$$

INZ033-034-041-042-049-050-058-059-071100-
EAST CENTRAL INDIANA

CITY           SKY/WX    TMP DP  RH WIND       PRES   REMARKS
MUNCIE         CLEAR     63  56  78 SE3       30.11S

$$

INZ060-061-067>069-081>083-085>088-071100-
SOUTHWEST INDIANA

CITY           SKY/WX    TMP DP  RH WIND       PRES   REMARKS
EVANSVILLE     CLEAR     60  57  89 CALM      30.09R FOG
HUNTINGBURG *+ CLEAR     61  55  82 SE5       30.09S

$$

INZ062-063-066-070>080-084-089>092-071100-
SOUTH CENTRAL AND SOUTHEAST INDIANA

CITY           SKY/WX    TMP DP  RH WIND       PRES   REMARKS
BLOOMINGTON    MOCLDY    58  52  80 CALM      30.09S
MADISON *+     CLEAR     59  54  82 CALM      30.12R
SEYMOUR +      MOCLDY    59  57  94 CALM      30.09S

$$




USA.gov is the U.S. government's official web portal to all federal, state and local government web resources and services.